sat.trackr.live / text

‹ back to catalog

BEIDOU-3 IGSO-2 (C39)

NORAD 44337 · 2019-035A

PAYLOAD ACTIVE UNKNOWN

§ Identity

Operator
Country
PRC
Launch date
2019-06-24
Launch site
XICLF
Launch vehicle
Mass (kg)
RCS (m²)

Purposes: comms, nav

External: N2YO · Heavens-Above · Gunter

§ Orbital elements

Epoch: 2026-05-19T15:14:57.732288Z

Period
1,436.05 min
Inclination
55.2397°
Eccentricity
0.0039530
Mean motion
1.00275192 rev/d
Perigee alt
35,619.0 km
Apogee alt
35,952.3 km
Semi-major
42,163.8 km
B*
0.0000e+0
RAAN
159.1126°
Arg perigee
216.4700°
Mean anomaly
210.4277°
Rev number
2,538

§ Raw data

BEIDOU-3 IGSO-2 (C39)1 44337U 19035A   26139.63539042 -.00000079  00000+0  00000+0 0  99972 44337  55.2397 159.1126 0039530 216.4700 210.4277  1.00275192 25387

JSON: /api/v1/satellites/44337 · /tle

For live sub-satellite position, see the globe view (requires WebGL).

§ Visibility from observer

Set your observer location to see the next 7 days of passes ≥ 10°. The values pass through the URL so the page stays shareable.

No JS? Fill the form by hand. The geolocation button needs JavaScript.